Location: Anumalkud?ru
(16.4847°N, 80.6636°E)
Time: 11:27:43
(UTC+00:00)

CSL-04 Rocket - Pass Details

Date: 11 April 2026
Orbit: 804 x 858 km, 98.7° (Epoch: 12 May)

Event Time Altitude Azimuth Distance (km) Brightness Sun altitude
Exits shadow 14:27:48 53° 93° (E) 1,034 3.7 -23.2°
Maximum altitude 14:28:13 54° 76° (ENE) 1,020 3.8 -23.3°
Drops below altitude 10° 14:33:34 10° 360° (N) 2,480 6.3 -24.5°
Sets 14:36:00 0° 356° (N) 3,420 7.1 -25.1°
